JI1PZF-2 Weather Reports


time (UTC)temp
C
wind
direction
speed
KPH
gust
KPH
rain 1hr
cm
rain 24hr
cm
rain mn
cm
humidity
%
barometer
mb
20260509201322 20 108 0.0 0.0 0.00 0.00 0.00 28 999.4
20260509200324 20 108 0.0 0.0 0.00 0.00 0.00 28 999.3
20260509195318 20 108 0.0 0.0 0.00 0.00 0.00 28 999.2
20260509194321 21 108 0.0 0.0 0.00 0.00 0.00 28 999.0
20260509193319 21 108 0.0 0.0 0.00 0.00 0.00 28 998.8
20260509192320 21 108 0.0 0.0 0.00 0.00 0.00 28 998.6
20260509191325 21 108 0.0 0.0 0.00 0.00 0.00 28 998.5
20260509190319 21 108 0.0 0.0 0.00 0.00 0.00 28 998.3
20260509185336 21 108 0.0 0.0 0.00 0.00 0.00 28 998.3
20260509184317 21 108 0.0 0.0 0.00 0.00 0.00 28 998.1
20260509183331 21 108 0.0 0.0 0.00 0.00 0.00 28 998.0
20260509182335 21 108 0.0 0.0 0.00 0.00 0.00 28 998.0
20260509181356 21 108 0.0 0.0 0.00 0.00 0.00 29 997.9
20260509180338 21 108 0.0 0.0 0.00 0.00 0.00 29 997.8
20260509175332 16 108 0.0 1.6 0.00 0.00 0.00 29 997.7
20260509174354 16 45 0.0 4.8 0.00 0.00 0.00 30 997.7
20260509173332 16 286 0.0 1.6 0.00 0.00 0.00 30 997.6
20260509172314 17 326 0.0 6.4 0.00 0.00 0.00 30 997.5
20260509171315 17 222 0.0 1.6 0.00 0.00 0.00 31 997.5
20260509170316 17 325 0.0 1.6 0.00 0.00 0.00 31 997.5
20260509165333 17 295 0.0 6.4 0.00 0.00 0.00 30 997.5
20260509164314 17 54 0.0 3.2 0.00 0.00 0.00 30 997.4
20260509163335 17 96 0.0 4.8 0.00 0.00 0.00 30 997.4
20260509162336 17 71 0.0 3.2 0.00 0.00 0.00 30 997.4
20260509161318 17 301 0.0 3.2 0.00 0.00 0.00 30 997.3
20260509160314 17 326 1.6 4.8 0.00 0.00 0.00 30 997.2
20260509155336 17 314 1.6 4.8 0.00 0.00 0.00 29 997.2
20260509154339 17 307 1.6 8.0 0.00 0.00 0.00 29 997.1
20260509153315 17 321 1.6 8.0 0.00 0.00 0.00 28 997.2
20260509152316 17 314 1.6 8.0 0.00 0.00 0.00 28 997.2
20260509151315 17 7 3.2 6.4 0.00 0.00 0.00 27 997.3
20260509150317 17 307 1.6 6.4 0.00 0.00 0.00 27 997.3
20260509145329 17 321 4.8 9.7 0.00 0.00 0.00 27 997.2
20260509144332 18 329 3.2 12.9 0.00 0.00 0.00 26 997.2
20260509143332 18 333 3.2 9.7 0.00 0.00 0.00 25 997.1
20260509142332 18 64 1.6 8.0 0.00 0.00 0.00 25 996.9
20260509141336 18 315 0.0 12.9 0.00 0.00 0.00 24 996.9
20260509140338 18 297 3.2 11.3 0.00 0.00 0.00 23 996.7
20260509135337 18 329 1.6 8.0 0.00 0.00 0.00 22 996.6
20260509134355 18 352 3.2 8.0 0.00 0.00 0.00 21 996.5
20260509133329 19 338 1.6 6.4 0.00 0.00 0.00 20 996.5
20260509132338 19 333 0.0 8.0 0.00 0.00 0.00 20 996.4
20260509131339 19 330 1.6 4.8 0.00 0.00 0.00 20 996.3
20260509130341 19 356 0.0 4.8 0.00 0.00 0.00 19 996.1
20260509125337 19 334 0.0 4.8 0.00 0.00 0.00 19 996.1
20260509124340 19 326 0.0 3.2 0.00 0.00 0.00 18 996.0
20260509123314 19 269 0.0 1.6 0.00 0.00 0.00 18 995.9
20260509122318 20 274 0.0 0.0 0.00 0.00 0.00 17 995.9
20260509121319 20 275 0.0 1.6 0.00 0.00 0.00 17 995.8
20260509120319 20 321 0.0 4.8 0.00 0.00 0.00 17 995.8
20260509115313 20 320 0.0 8.0 0.00 0.00 0.00 17 995.7
20260509114315 20 332 0.0 0.0 0.00 0.00 0.00 17 995.6
20260509113323 20 67 3.2 6.4 0.00 0.00 0.00 16 995.6
20260509112322 20 319 0.0 3.2 0.00 0.00 0.00 16 995.4
20260509111324 20 276 0.0 1.6 0.00 0.00 0.00 17 995.3
20260509110346 20 333 0.0 8.0 0.00 0.00 0.00 16 995.2
20260509105320 20 320 1.6 11.3 0.00 0.00 0.00 16 995.2
20260509104320 20 323 1.6 11.3 0.00 0.00 0.00 16 994.9
20260509103322 20 324 1.6 8.0 0.00 0.00 0.00 16 994.7
20260509102322 20 297 3.2 9.7 0.00 0.00 0.00 16 994.5
20260509101326 21 293 1.6 4.8 0.00 0.00 0.00 16 994.2
20260509100322 21 281 3.2 8.0 0.00 0.00 0.00 16 994.0
20260509095339 21 66 1.6 11.3 0.00 0.00 0.00 16 994.0
20260509094319 21 320 3.2 14.5 0.00 0.00 0.00 16 993.9
20260509093341 21 121 0.0 6.4 0.00 0.00 0.00 16 993.7
20260509092322 21 354 1.6 8.0 0.00 0.00 0.00 16 993.5
20260509091321 21 233 1.6 9.7 0.00 0.00 0.00 15 993.3
20260509090323 22 44 1.6 9.7 0.00 0.00 0.00 15 993.1
20260509085337 22 290 1.6 17.7 0.00 0.00 0.00 15 993.1
20260509084319 22 316 6.4 9.7 0.00 0.00 0.00 14 992.9
20260509083348 22 329 1.6 11.3 0.00 0.00 0.00 14 992.7
20260509082334 23 266 1.6 11.3 0.00 0.00 0.00 15 992.5
20260509081357 22 329 3.2 12.9 0.00 0.00 0.00 15 992.5
20260509080336 22 170 1.6 19.3 0.00 0.00 0.00 15 992.3
20260509075331 23 169 3.2 16.1 0.00 0.00 0.00 15 992.1
20260509074333 23 323 3.2 16.1 0.00 0.00 0.00 15 991.9
20260509073332 23 329 3.2 25.7 0.00 0.00 0.00 15 991.7
20260509072315 23 60 3.2 16.1 0.00 0.00 0.00 15 991.5
20260509071318 23 319 4.8 17.7 0.00 0.00 0.00 15 991.5
20260509070318 23 316 6.4 17.7 0.00 0.00 0.00 16 991.3
20260509065313 23 322 4.8 20.9 0.00 0.00 0.00 16 990.9
20260509064331 23 301 4.8 16.1 0.00 0.00 0.00 16 990.9
20260509063352 23 321 4.8 16.1 0.00 0.00 0.00 16 990.9
20260509062353 23 338 6.4 16.1 0.00 0.00 0.00 16 990.9
20260509061314 23 127 4.8 27.4 0.00 0.00 0.00 18 990.9
20260509060316 23 150 4.8 16.1 0.00 0.00 0.00 18 990.8
20260509055313 23 248 3.2 20.9 0.00 0.00 0.00 18 990.6
20260509054313 23 299 4.8 17.7 0.00 0.00 0.00 18 990.8
20260509053314 23 274 3.2 14.5 0.00 0.00 0.00 19 990.7
20260509052335 23 295 9.7 22.5 0.00 0.00 0.00 19 990.8
20260509051316 23 345 6.4 32.2 0.00 0.00 0.00 19 990.7
20260509050339 23 108 3.2 17.7 0.00 0.00 0.00 20 990.7
20260509045400 23 124 6.4 17.7 0.00 0.00 0.00 20 990.7
20260509044333 23 338 6.4 16.1 0.00 0.00 0.00 20 990.6
20260509043335 23 352 4.8 24.1 0.00 0.00 0.00 20 990.6
20260509042317 22 276 6.4 27.4 0.00 0.00 0.00 21 990.6
20260509041321 22 322 8.0 29.0 0.00 0.00 0.00 22 990.6
20260509040320 22 298 8.0 25.7 0.00 0.00 0.00 21 990.8
20260509035317 22 246 1.6 19.3 0.00 0.00 0.00 22 990.8
20260509034340 22 335 4.8 14.5 0.00 0.00 0.00 23 990.9
20260509033315 22 331 6.4 22.5 0.00 0.00 0.00 23 991.0
20260509032339 22 351 6.4 19.3 0.00 0.00 0.00 22 990.9
20260509031325 22 284 6.4 24.1 0.00 0.00 0.00 21 990.8
20260509030327 22 329 11.3 27.4 0.00 0.00 0.00 22 990.8
20260509025322 21 290 8.0 32.2 0.00 0.00 0.00 23 990.8
20260509024320 22 305 8.0 32.2 0.00 0.00 0.00 23 990.8
20260509023342 21 347 6.4 33.8 0.00 0.00 0.00 24 990.7
20260509022321 22 329 6.4 19.3 0.00 0.00 0.00 24 990.7
20260509021320 21 345 9.7 22.5 0.00 0.00 0.00 24 990.8
20260509020323 21 332 12.9 37.0 0.00 0.00 0.00 25 990.9
20260509015318 21 90 8.0 25.7 0.00 0.00 0.00 26 990.8
20260509014322 21 345 6.4 29.0 0.00 0.00 0.00 26 990.9
20260509013323 21 333 8.0 29.0 0.00 0.00 0.00 26 990.9
20260509012327 21 343 6.4 25.7 0.00 0.00 0.00 27 991.0
20260509011327 21 291 11.3 33.8 0.00 0.00 0.00 27 990.7
20260509010327 21 298 8.0 24.1 0.00 0.00 0.00 26 990.4
20260509005330 21 318 8.0 25.7 0.00 0.00 0.00 25 990.3
20260509004326 20 89 8.0 27.4 0.00 0.00 0.00 25 990.1
20260509003314 20 57 8.0 24.1 0.00 0.00 0.00 23 989.9
20260509002316 20 287 6.4 16.1 0.00 0.00 0.00 23 989.8
20260509001317 20 30 4.8 17.7 0.00 0.00 0.00 22 989.7
20260509000320 20 314 3.2 16.1 0.00 0.00 0.00 21 989.7
20260508235315 20 242 4.8 19.3 0.00 0.00 0.00 21 989.5
20260508234319 21 342 4.8 12.9 0.00 0.00 0.00 20 989.5
20260508233319 20 329 1.6 6.4 0.00 0.00 0.00 20 989.4
20260508232322 20 340 0.0 12.9 0.00 0.00 0.00 21 989.3
20260508231345 20 12 3.2 12.9 0.00 0.00 0.00 20 989.0
20260508230324 20 70 1.6 11.3 0.00 0.00 0.00 20 988.8
20260508225340 20 301 0.0 6.4 0.00 0.00 0.00 19 988.7
20260508224322 20 320 3.2 9.7 0.00 0.00 0.00 20 988.8
20260508223318 20 319 1.6 4.8 0.00 0.00 0.00 20 988.6
20260508222327 19 285 0.0 4.8 0.00 0.00 0.00 21 988.4
20260508221322 19 323 0.0 3.2 0.00 0.00 0.00 21 988.3
20260508220351 18 295 1.6 6.4 0.00 0.00 0.00 22 988.0
20260508215316 18 315 1.6 6.4 0.00 0.00 0.00 22 987.9
20260508214313 18 320 0.0 3.2 0.00 0.00 0.00 22 987.7
20260508213316 18 314 0.0 1.6 0.00 0.00 0.00 22 987.5
20260508212319 17 326 0.0 8.0 0.00 0.00 0.00 22 987.3
20260508211323 17 326 1.6 8.0 0.00 0.00 0.00 22 987.2
20260508210323 18 294 0.0 3.2 0.00 0.00 0.00 21 986.9
20260508205338 21 108 0.0 8.0 0.00 0.00 0.00 40 986.7
20260508203327 21 108 0.0 0.0 0.00 0.00 0.00 42 986.3
20260508202329 21 108 0.0 0.0 0.00 0.00 0.00 40 986.3